Previsão horária em Abasolo

Hoje, 30 Setembro, Quarta-feira

Tempo Temperatura Precipitação Vento Pressão Humidade
00:00 +11°C° 0 mm 1 m/s 621 mmHg 85%
01:00 +11°C° 0 mm 1 m/s 621 mmHg 87%
02:00 +10°C° 0 mm 1 m/s 621 mmHg 89%
03:00 +10°C° 0 mm 1 m/s 621 mmHg 90%
04:00 +10°C° 0 mm 1 m/s 621 mmHg 91%
05:00 +9°C° 0 mm 1 m/s 621 mmHg 92%
06:00 +12°C° 0 mm 1 m/s 622 mmHg 82%
07:00 +14°C° 0 mm 2 m/s 623 mmHg 73%
08:00 +16°C° 0 mm 2 m/s 624 mmHg 63%
09:00 +19°C° 0 mm 2 m/s 625 mmHg 55%
10:00 +21°C° 0 mm 3 m/s 625 mmHg 47%
11:00 +25°C° 0 mm 3 m/s 625 mmHg 40%
12:00 +26°C° 0 mm 3 m/s 625 mmHg 37%
13:00 +27°C° 0 mm 3 m/s 624 mmHg 34%
14:00 +28°C° 0 mm 2 m/s 624 mmHg 31%
15:00 +26°C° 0 mm 2 m/s 623 mmHg 35%
16:00 +25°C° 0 mm 2 m/s 623 mmHg 39%
17:00 +23°C° 0 mm 2 m/s 622 mmHg 43%
18:00 +19°C° 0 mm 2 m/s 622 mmHg 43%
19:00 +18°C° 0 mm 1 m/s 622 mmHg 44%
20:00 +14°C° 0 mm 1 m/s 621 mmHg 45%
21:00 +13°C° 0 mm 1 m/s 621 mmHg 47%
22:00 +12°C° 0 mm 1 m/s 621 mmHg 49%
23:00 +11°C° 0 mm 1 m/s 620 mmHg 51%

Amanhã, 1 Outubro, Quinta-feira

Tempo Temperatura Precipitação Vento Pressão Humidade
00:00 +11°C° 0 mm 1 m/s 620 mmHg 53%
01:00 +10°C° 0 mm 1 m/s 620 mmHg 56%
02:00 +9°C° 0 mm 1 m/s 619 mmHg 59%
03:00 +9°C° 0 mm 1 m/s 619 mmHg 62%
04:00 +8°C° 0 mm 1 m/s 619 mmHg 65%
05:00 +6°C° 0 mm 0 m/s 619 mmHg 68%
06:00 +10°C° 0 mm 1 m/s 620 mmHg 60%
07:00 +13°C° 0 mm 1 m/s 621 mmHg 53%
08:00 +16°C° 0 mm 1 m/s 623 mmHg 45%
09:00 +19°C° 0 mm 2 m/s 623 mmHg 37%
10:00 +21°C° 0 mm 2 m/s 624 mmHg 28%
11:00 +25°C° 0 mm 2 m/s 625 mmHg 20%
12:00 +26°C° 0 mm 3 m/s 624 mmHg 18%
13:00 +27°C° 0 mm 3 m/s 624 mmHg 17%
14:00 +28°C° 0 mm 3 m/s 624 mmHg 15%
15:00 +26°C° 0 mm 3 m/s 623 mmHg 20%
16:00 +24°C° 0 mm 3 m/s 622 mmHg 25%
17:00 +21°C° 0 mm 3 m/s 621 mmHg 30%
18:00 +18°C° 0 mm 3 m/s 621 mmHg 33%
19:00 +15°C° 0 mm 2 m/s 621 mmHg 36%
20:00 +12°C° 0 mm 2 m/s 621 mmHg 39%
21:00 +10°C° 0 mm 2 m/s 621 mmHg 41%
22:00 +10°C° 0 mm 1 m/s 621 mmHg 44%
23:00 +9°C° 0 mm 1 m/s 620 mmHg 47%

Depois de amanhã, 2 Outubro, Sexta-feira

Tempo Temperatura Precipitação Vento Pressão Humidade
00:00 +9°C° 0 mm 1 m/s 620 mmHg 49%
01:00 +8°C° 0 mm 1 m/s 620 mmHg 52%
02:00 +7°C° 0 mm 1 m/s 619 mmHg 54%
03:00 +7°C° 0 mm 1 m/s 619 mmHg 58%
04:00 +6°C° 0 mm 1 m/s 619 mmHg 61%
05:00 +6°C° 0 mm 1 m/s 619 mmHg 65%
06:00 +9°C° 0 mm 1 m/s 620 mmHg 59%
07:00 +12°C° 0 mm 2 m/s 622 mmHg 53%
08:00 +15°C° 0 mm 2 m/s 623 mmHg 47%
09:00 +17°C° 0 mm 3 m/s 623 mmHg 41%
10:00 +20°C° 0 mm 3 m/s 624 mmHg 35%
11:00 +23°C° 0 mm 4 m/s 624 mmHg 29%
12:00 +25°C° 0 mm 4 m/s 624 mmHg 27%
13:00 +26°C° 0 mm 4 m/s 624 mmHg 26%
14:00 +26°C° 0 mm 4 m/s 623 mmHg 24%
15:00 +25°C° 0 mm 3 m/s 622 mmHg 30%
16:00 +22°C° 0 mm 3 m/s 622 mmHg 36%
17:00 +20°C° 0 mm 3 m/s 621 mmHg 42%
18:00 +17°C° 0 mm 3 m/s 621 mmHg 47%
19:00 +15°C° 0 mm 2 m/s 621 mmHg 53%
20:00 +12°C° 0 mm 2 m/s 621 mmHg 58%
21:00 +10°C° 0 mm 2 m/s 620 mmHg 63%
22:00 +10°C° 0 mm 1 m/s 620 mmHg 67%
23:00 +9°C° 0 mm 1 m/s 620 mmHg 71%

3 Outubro, Sábado

Tempo Temperatura Precipitação Vento Pressão Humidade
00:00 +8°C° 0 mm 1 m/s 619 mmHg 76%
01:00 +8°C° 0 mm 1 m/s 619 mmHg 81%
02:00 +7°C° 0 mm 1 m/s 619 mmHg 85%
03:00 +7°C° 0 mm 1 m/s 619 mmHg 88%
04:00 +7°C° 0 mm 1 m/s 619 mmHg 91%
05:00 +6°C° 0 mm 1 m/s 619 mmHg 94%
06:00 +9°C° 0 mm 1 m/s 620 mmHg 84%
07:00 +12°C° 0 mm 1 m/s 621 mmHg 74%
08:00 +14°C° 0 mm 2 m/s 622 mmHg 64%
09:00 +17°C° 0 mm 2 m/s 623 mmHg 56%
10:00 +20°C° 0 mm 2 m/s 623 mmHg 47%
11:00 +24°C° 0 mm 3 m/s 623 mmHg 39%
12:00 +25°C° 0 mm 2 m/s 623 mmHg 36%
13:00 +27°C° 0 mm 2 m/s 623 mmHg 33%
14:00 +28°C° 0 mm 2 m/s 622 mmHg 30%
15:00 +26°C° 0 mm 2 m/s 622 mmHg 36%
16:00 +25°C° 0 mm 2 m/s 621 mmHg 42%
17:00 +23°C° 0 mm 2 m/s 621 mmHg 47%
18:00 +20°C° 0 mm 2 m/s 621 mmHg 57%
19:00 +17°C° 0 mm 2 m/s 621 mmHg 66%
20:00 +15°C° 0 mm 2 m/s 621 mmHg 76%
21:00 +14°C° 0 mm 2 m/s 621 mmHg 81%
22:00 +13°C° 0 mm 1 m/s 620 mmHg 87%
23:00 +12°C° 0 mm 1 m/s 620 mmHg 92%

4 Outubro, Domingo

Tempo Temperatura Precipitação Vento Pressão Humidade
00:00 +12°C° 0 mm 1 m/s 620 mmHg 93%
01:00 +11°C° 0 mm 1 m/s 620 mmHg 94%
02:00 +11°C° 0 mm 1 m/s 619 mmHg 95%
03:00 +11°C° 0 mm 1 m/s 619 mmHg 95%
04:00 +11°C° 0 mm 1 m/s 619 mmHg 96%
05:00 +9°C° 0 mm 0 m/s 619 mmHg 96%
06:00 +13°C° 0 mm 1 m/s 621 mmHg 87%
07:00 +15°C° 0 mm 1 m/s 622 mmHg 78%
08:00 +18°C° 0 mm 1 m/s 623 mmHg 69%
09:00 +20°C° 0 mm 2 m/s 623 mmHg 60%
10:00 +23°C° 0 mm 2 m/s 624 mmHg 50%
11:00 +26°C° 0 mm 3 m/s 625 mmHg 41%
12:00 +26°C° 0 mm 3 m/s 624 mmHg 38%
13:00 +27°C° 0 mm 3 m/s 623 mmHg 36%
14:00 +28°C° 0 mm 3 m/s 623 mmHg 34%
15:00 +26°C° 0 mm 3 m/s 623 mmHg 39%
16:00 +25°C° 0 mm 3 m/s 622 mmHg 44%
17:00 +22°C° 0 mm 3 m/s 622 mmHg 48%
18:00 +20°C° 0 mm 3 m/s 622 mmHg 54%
19:00 +17°C° 0 mm 3 m/s 622 mmHg 59%
20:00 +15°C° 0 mm 2 m/s 621 mmHg 65%
21:00 +14°C° 0 mm 2 m/s 621 mmHg 63%
22:00 +14°C° 0 mm 2 m/s 621 mmHg 61%
23:00 +13°C° 0 mm 2 m/s 621 mmHg 59%

5 Outubro, Segunda-feira

Tempo Temperatura Precipitação Vento Pressão Humidade
00:00 +12°C° 0 mm 1 m/s 621 mmHg 63%
01:00 +11°C° 0 mm 1 m/s 621 mmHg 66%
02:00 +11°C° 0 mm 1 m/s 620 mmHg 70%
03:00 +10°C° 0 mm 1 m/s 620 mmHg 76%
04:00 +10°C° 0 mm 1 m/s 620 mmHg 81%
05:00 +9°C° 0 mm 1 m/s 620 mmHg 87%
06:00 +11°C° 0 mm 1 m/s 621 mmHg 77%
07:00 +14°C° 0 mm 2 m/s 622 mmHg 68%
08:00 +17°C° 0 mm 2 m/s 624 mmHg 58%
09:00 +19°C° 0 mm 3 m/s 624 mmHg 48%
10:00 +21°C° 0 mm 3 m/s 624 mmHg 38%
11:00 +25°C° 0 mm 4 m/s 625 mmHg 29%
12:00 +26°C° 0 mm 3 m/s 625 mmHg 27%
13:00 +27°C° 0 mm 3 m/s 624 mmHg 25%
14:00 +27°C° 0 mm 3 m/s 624 mmHg 23%
15:00 +26°C° 0 mm 3 m/s 623 mmHg 28%
16:00 +24°C° 0 mm 3 m/s 623 mmHg 33%
17:00 +21°C° 0 mm 3 m/s 622 mmHg 38%
18:00 +18°C° 0 mm 3 m/s 622 mmHg 42%
19:00 +16°C° 0 mm 2 m/s 621 mmHg 46%
20:00 +13°C° 0 mm 2 m/s 621 mmHg 50%
21:00 +13°C° 0 mm 1 m/s 621 mmHg 51%
22:00 +12°C° 0 mm 1 m/s 621 mmHg 52%
23:00 +11°C° 0 mm 1 m/s 621 mmHg 54%
Mostrar mais